weather station
Area: 11014 km2
The highest point: Tok (865 m.s.l.)
Total stations: 51
Stations online: 49
Stations offline: 2
Current weather
-1°C

Meteorological map - weather stations in Středočeský

. The meteorological maps show weather information from WARIO weather stations

Weather stations Středočeský

 UpdatesNameStatusTemperatureHumidityWind speedWind direction
5.12.2021 22:18Barochov-1.3 °C96.6 %0.0 m/s NW
5.12.2021 22:17Beroun-0.6 °C90.6 %0.9 m/s S
5.12.2021 22:18Bořanovice0.2 °C87.5 %0.8 m/s N
5.12.2021 22:17Jílové u Prahy - Borek-1.0 °C96.9 %0.0 m/s N
5.12.2021 22:18Břešťany-1.3 °C91.1 %0.0 m/s NW
5.12.2021 22:18Brandýs nad Labem0.2 °C98.0 %0.0 m/s S
13.11.2021 12:48Rakovník3.5 °C97.9 %0.0 m/s S
5.12.2021 22:18Králův Dvůr-1.0 °C98.8 %1.0 m/s S
5.12.2021 22:18Chotětov-0.8 °C100.0 %0.0 m/s W
5.12.2021 22:17Dobřejovice0.0 °C88.1 %0.9 m/s S
5.12.2021 22:17Dolní Břežany-0.7 °C90.8 %1.0 m/s E
5.12.2021 22:18Dolní Jirčany-0.6 °C100.0 %0.0 m/s NW
5.12.2021 22:17Holubice0.5 °C95.2 %1.0 m/s E
5.12.2021 22:17Hostín u Vojkovic-1.4 °C100.0 %1.1 m/s SW
26.11.2021 19:12Hovorčovice0.1 °C100.0 %0.0 m/s S
5.12.2021 22:17Sedlčany-1.6 °C95.1 %0.0 m/s E
5.12.2021 22:17Kojetice-0.3 °C100.0 %2.0 m/s NW
5.12.2021 22:18Kostelec nad Černými lesy-0.2 °C89.8 %1.1 m/s NW
5.12.2021 22:17Krásná Hora nad Vltavou-1.5 °C100.0 %0.0 m/s E
5.12.2021 22:18Květnice0.1 °C100.0 %1.0 m/s SW
5.12.2021 22:18Libeř0.1 °C99.3 %0.0 m/s NW
5.12.2021 22:18Zeleneč0.0 °C100.0 %0.7 m/s W
5.12.2021 22:18Zdice-0.3 °C93.1 %0.9 m/s SW
5.12.2021 22:18Krušovice-1.5 °C100.0 %0.0 m/s W
5.12.2021 22:18Jince-1.8 °C98.8 %0.0 m/s NW
5.12.2021 22:18Vestec-0.2 °C89.8 %1.0 m/s SW
5.12.2021 22:17Dolní Jirčany-1.2 °C100.0 %0.0 m/s NW
5.12.2021 22:18Cetyně-1.5 °C88.8 %0.8 m/s W
5.12.2021 22:17Vysoký Újezd-1.3 °C92.6 %1.6 m/s W
5.12.2021 22:17Kralupy nad Vltavou1.5 °C90.8 %0.0 m/s N
5.12.2021 22:17Velvary1.2 °C77.7 %0.0 m/s E
5.12.2021 22:18Mladá Boleslav-0.9 °C100.0 %0.0 m/s SE
5.12.2021 22:18Milín-1.1 °C84.8 %0.0 m/s W
5.12.2021 22:18Líbeznice0.0 °C84.7 %1.4 m/s W
5.12.2021 22:18Mnichovice-0.9 °C86.0 %0.0 m/s NW
5.12.2021 22:17Ostrá-0.7 °C94.5 %1.1 m/s NW
5.12.2021 22:18Petrovice-2.0 °C100.0 %0.8 m/s SW
5.12.2021 22:18Suchodol-0.6 °C100.0 %0.7 m/s S
5.12.2021 22:18Říčany-0.1 °C93.9 %0.0 m/s SE
5.12.2021 22:17Semice0.4 °C100.0 %1.5 m/s SE
5.12.2021 22:18Slaný-0.2 °C97.5 %0.0 m/s W
5.12.2021 22:17Svojetice-0.8 °C100.0 %1.1 m/s SW
5.12.2021 22:17Roztoky-1.1 °C100.0 %0.9 m/s NW
5.12.2021 22:17Třebsko-2.1 °C99.9 %0.0 m/s SE
5.12.2021 22:18Unhošť-1.2 °C89.6 %0.0 m/s N
5.12.2021 22:17Vrbčany0.8 °C100.0 %0.7 m/s E
5.12.2021 22:17Všešímy-0.7 °C89.9 %0.0 m/s SE
5.12.2021 22:17Všetaty1.0 °C84.5 %0.9 m/s NW
5.12.2021 22:18Zaječice-1.0 °C91.2 %0.0 m/s W
5.12.2021 22:17Zduchovice-1.0 °C96.4 %1.0 m/s NW
5.12.2021 22:17Divišov-0.5 °C100.0 %1.0 m/s S
Email notifications
Enter your email address to subscribe to notifications about news at warioweather.com. Your email address will not be used for any purpose other than sending these emails and will not be provided to any third party. The subscription can be ended at any time.
All data are only indicative. The portal administrator has no responsibility for potentially incorrect data and related consequences. Publishing or further sharing of content from www.warioweather.com is only allowed with written consent from WANET s.r.o.